Theta_e
297 297 296 296 295 295 295 296 297 298 298 299 300 301 302 303 304 304 306 306 307 318 326 329 333 335 337 336 335 333 333 335 334 333 333 331 329 330 329 328 327 327 328
295 295 295 294 294 294 294 295 295 296 297 298 299 300 300 301 302 303 304 305 305 305 310 321 326 331 334 335 337 336 334 334 335 335 333 333 330 330 330 329 328 327 327
294 294 293 293 293 293 293 295 295 296 296 297 298 298 299 300 301 302 303 304 305 306 305 306 316 322 327 331 333 336 336 336 335 335 335 334 332 331 330 330 329 327 327
294 293 292 291 291 292 293 293 294 295 295 296 297 298 299 299 300 301 302 303 305 305 306 306 305 312 318 324 328 328 333 336 336 335 335 335 333 332 331 330 330 328 327
293 292 291 290 290 291 292 292 293 293 294 295 296 297 299 300 301 302 303 304 305 307 308 308 307 305 309 316 324 327 330 334 336 336 336 335 334 333 332 330 330 329 327
292 291 290 290 290 291 291 291 291 292 294 294 294 297 298 301 303 304 305 307 308 310 311 314 315 313 311 310 313 315 321 328 334 336 336 335 335 334 333 331 330 330 329
291 290 289 289 289 290 289 290 290 291 293 292 294 296 300 304 304 301 303 307 304 308 308 309 310 311 319 319 320 321 322 323 327 334 336 336 335 335 334 332 331 330 329
289 289 288 287 287 289 288 288 288 289 291 291 291 295 301 303 301 300 303 304 303 304 305 306 307 308 314 316 316 319 322 324 326 328 330 335 335 335 334 333 332 330 330
287 287 287 286 286 287 287 287 286 287 288 290 291 291 296 298 295 302 301 301 303 301 301 304 307 310 310 311 310 314 318 320 323 325 327 325 334 336 334 333 332 331 330
284 285 285 285 285 285 285 285 285 285 286 288 288 288 289 290 296 297 298 301 299 300 302 304 307 306 305 305 304 303 309 318 321 323 327 329 327 331 335 334 333 332 330
282 283 284 284 284 284 284 284 284 284 284 285 286 286 289 290 291 292 297 296 296 300 302 303 301 300 299 299 298 298 304 311 317 321 323 327 328 327 330 331 332 331 328
281 281 282 282 282 283 283 283 284 284 283 284 284 285 286 288 288 289 291 292 294 298 298 296 296 296 295 295 294 294 298 305 310 317 322 324 328 329 327 330 332 325 324
281 281 281 281 281 281 281 282 282 283 283 283 284 284 285 285 286 286 287 290 292 293 296 295 293 293 292 292 292 292 292 295 302 304 315 323 326 327 327 329 328 322 322
280 280 280 280 280 280 280 280 281 282 282 283 283 284 284 283 284 284 286 287 290 296 293 290 291 290 290 290 290 290 291 290 291 296 296 307 316 321 325 327 329 325 323
280 279 279 279 279 279 279 280 280 280 281 282 282 283 283 282 283 283 284 286 287 293 292 290 288 287 288 288 288 289 289 289 289 290 290 292 294 302 310 318 322 325 326
279 279 279 279 279 279 279 280 279 280 281 281 281 282 282 282 282 283 283 284 285 286 292 287 286 285 286 286 286 286 286 287 287 288 288 289 289 290 291 296 303 308 318
279 278 278 278 278 278 278 279 279 279 279 279 280 280 281 281 281 281 283 284 284 286 290 287 285 285 284 285 285 285 285 285 285 286 287 287 288 288 288 289 290 293 296
279 278 278 278 277 277 277 277 278 277 278 278 278 280 280 280 279 280 281 282 283 283 285 285 283 284 284 283 285 284 283 283 283 284 284 286 287 287 288 288 287 289 291
279 278 278 277 277 277 277 277 277 277 277 277 277 278 279 279 279 278 278 279 280 281 282 283 283 282 282 281 284 285 284 284 283 283 283 283 285 285 285 286 286 286 286
280 279 278 278 278 278 277 277 277 276 277 276 277 277 278 278 279 279 278 277 277 279 280 281 281 281 280 281 282 282 284 283 281 282 282 282 282 284 283 284 284 284 285
280 278 278 278 279 280 279 279 278 277 277 277 277 277 277 277 277 277 278 278 277 278 279 279 279 279 278 279 280 281 282 283 282 279 282 281 282 282 282 281 282 282 283
279 279 279 279 280 280 279 278 279 278 277 277 277 277 277 276 275 275 275 276 276 276 277 278 278 277 277 277 279 280 280 281 283 278 280 280 280 280 279 280 280 280 281
279 279 279 279 279 279 279 278 278 278 278 277 277 277 276 275 274 274 274 274 274 274 274 275 276 276 276 275 277 279 280 279 278 276 279 281 279 280 278 277 279 278 279
279 279 279 279 280 279 278 277 277 278 278 278 277 276 276 275 274 273 273 273 273 272 273 273 273 273 273 273 275 276 278 280 278 276 275 279 277 279 279 277 275 276 276
278 278 279 279 279 279 278 277 277 278 277 277 277 277 276 275 274 273 273 273 272 271 271 271 271 271 271 271 272 274 275 277 278 276 272 276 275 277 279 278 275 274 274
278 278 277 278 278 279 278 277 277 277 277 277 277 277 276 275 274 273 273 273 272 270 270 270 270 270 270 270 270 270 272 273 274 275 271 274 274 274 278 277 275 273 274
Wind_Speed
12 13 13 13 14 14 14 14 15 16 16 16 15 15 15 15 16 18 20 24 27 29 29 28 22 22 23 26 27 28 30 33 34 33 34 34 34 34 34 33 32 33 32
15 13 13 14 14 15 14 13 14 15 15 16 16 15 16 17 17 18 19 22 26 27 31 32 32 24 21 25 25 28 30 33 36 36 35 36 36 36 36 35 34 34 34
15 14 13 14 15 14 15 15 14 13 14 15 16 17 17 17 17 18 19 19 21 24 26 30 32 30 26 22 26 27 29 32 35 38 38 37 39 38 37 37 37 36 35
18 15 14 15 16 15 15 16 17 17 16 16 18 18 19 19 19 18 17 17 17 18 20 22 26 32 30 24 25 26 28 30 34 37 40 40 39 41 40 40 39 39 38
18 16 16 15 15 15 16 18 18 18 19 18 20 20 18 18 15 13 12 12 13 13 15 18 20 23 30 29 24 23 24 27 30 36 40 42 42 42 42 42 42 41 40
17 17 16 16 15 16 17 19 19 18 16 19 22 18 19 11 5 8 10 8 7 9 10 10 12 14 19 25 27 27 27 25 27 32 40 42 45 44 44 43 43 42 41
16 17 15 16 15 16 18 19 19 20 16 22 16 19 11 5 5 14 9 7 15 9 11 11 10 11 7 8 10 16 20 25 26 27 35 43 44 46 45 45 45 44 43
16 16 17 16 16 14 16 19 20 21 15 20 13 12 6 3 9 19 11 10 15 13 14 14 13 14 10 8 11 12 14 22 24 26 29 38 44 46 46 44 44 44 43
15 15 16 15 14 14 15 16 17 19 17 15 12 9 4 3 14 6 13 18 13 21 19 15 13 11 11 9 12 13 13 15 22 27 26 28 38 48 48 46 46 46 44
14 15 15 15 13 13 15 15 15 15 16 17 12 15 7 9 3 5 11 14 20 17 15 13 11 11 12 12 13 18 20 14 16 22 26 25 28 35 42 45 47 44 44
13 14 14 14 14 13 13 13 15 17 15 14 15 17 12 12 6 6 6 14 21 16 17 12 16 18 17 16 18 24 22 19 14 17 22 26 26 24 23 35 49 44 39
12 14 13 13 13 13 14 13 13 15 15 13 14 13 12 7 13 8 5 13 12 11 14 20 24 23 21 21 22 25 28 21 18 13 19 19 20 19 20 24 41 44 40
12 13 13 13 13 13 13 12 13 13 15 16 16 14 11 10 11 10 11 11 7 9 7 20 23 25 22 22 24 26 33 31 23 22 10 11 18 19 15 22 39 46 50
11 12 12 12 14 15 13 13 13 14 15 16 17 16 13 11 10 10 9 12 7 3 10 14 15 22 21 23 22 26 33 37 36 31 31 15 3 11 18 13 35 42 44
11 13 13 14 15 14 14 13 15 15 15 15 17 18 16 14 12 11 10 10 8 4 6 10 13 21 18 20 22 25 29 35 38 42 39 36 32 20 6 7 14 22 24
13 13 13 14 14 14 14 14 15 16 17 17 18 19 19 17 15 15 14 12 10 6 3 11 11 17 21 17 18 22 24 28 36 39 39 40 38 36 34 25 12 4 18
12 11 12 13 14 15 15 16 17 17 18 19 19 21 21 21 19 17 16 16 15 12 6 8 12 18 20 23 22 20 24 28 32 33 36 38 38 39 37 37 35 32 21
10 11 12 14 15 16 19 17 17 18 19 20 21 22 24 23 23 21 18 18 17 16 9 10 13 15 17 20 18 20 22 25 27 29 32 36 37 39 40 38 37 41 35
12 12 15 18 19 19 19 20 20 18 18 22 19 22 23 24 25 24 22 19 17 16 15 11 13 14 12 22 18 15 20 19 23 28 30 32 37 36 37 36 41 41 39
11 12 14 15 17 19 19 18 19 18 17 20 20 22 23 25 26 23 23 23 20 17 17 16 14 17 15 20 19 18 15 21 21 22 26 29 30 32 34 34 38 39 35
9 11 13 15 14 15 13 13 15 17 16 16 19 19 21 21 22 24 25 24 22 20 19 18 17 17 20 20 21 20 16 7 15 22 20 23 25 30 32 34 34 34 36
10 10 11 11 13 13 13 12 12 15 17 18 19 18 18 19 18 20 21 24 25 22 21 20 19 19 21 19 18 16 18 13 5 18 15 19 19 21 28 32 29 30 30
10 11 11 11 11 11 11 12 12 13 16 17 18 18 18 19 17 16 17 17 21 23 20 18 18 20 20 21 16 15 13 14 12 17 11 11 15 17 19 27 26 28 28
10 10 10 10 10 10 10 10 12 13 14 15 18 18 18 19 20 16 17 18 19 20 21 19 18 16 19 20 15 12 9 5 8 17 18 9 14 10 13 17 25 25 26
10 10 9 10 10 10 9 9 9 10 12 13 15 17 17 18 19 18 17 18 18 18 16 18 18 18 19 24 24 15 19 14 6 11 23 11 16 12 7 13 19 21 23
10 9 9 9 10 9 9 9 8 8 10 10 11 12 16 16 17 18 17 16 17 17 16 17 18 19 20 21 26 23 19 17 13 7 21 14 16 13 5 7 15 21 17
Wind_Direction
19 16 11 7 3 359 353 348 342 335 328 320 314 311 306 297 289 285 281 276 267 254 249 253 259 263 258 251 249 247 243 241 240 237 234 232 233 233 230 230 229 223 222
26 19 15 12 8 0 356 352 348 340 332 326 320 313 305 299 292 286 283 284 282 270 254 249 252 255 258 255 251 250 247 245 242 241 238 234 233 234 232 232 231 226 223
30 29 22 18 10 6 359 355 351 344 335 328 321 316 308 300 295 293 288 282 283 285 275 257 248 253 257 260 253 252 248 248 246 242 240 238 234 234 234 231 230 228 226
36 35 29 19 10 8 7 3 353 349 343 337 328 319 309 302 297 294 290 287 282 283 281 279 257 246 251 259 263 257 252 248 247 244 241 239 237 235 234 232 229 228 228
38 38 31 20 17 16 13 2 357 350 344 341 330 319 310 306 306 306 303 299 294 291 287 283 285 263 249 251 257 260 260 254 247 245 243 240 237 236 235 234 230 227 229
34 33 29 23 23 20 12 7 357 354 347 342 332 325 315 314 326 359 349 348 359 338 329 314 300 283 274 259 262 265 265 262 252 245 243 243 241 238 236 234 234 230 228
34 29 24 23 23 24 17 10 1 358 357 353 343 342 341 345 34 356 355 16 359 4 1 355 360 347 315 310 297 276 271 266 260 251 242 242 241 240 239 235 233 231 230
33 30 26 20 21 21 20 16 12 2 359 4 349 322 347 336 340 335 357 358 347 346 344 339 345 345 336 333 326 291 277 259 253 258 252 243 242 240 239 236 234 233 231
30 31 29 21 21 24 20 20 16 11 357 3 17 16 339 334 331 328 341 338 339 332 334 340 345 355 352 352 345 326 300 280 269 256 255 255 245 243 242 236 235 229 227
30 31 32 28 26 26 21 20 20 16 8 2 6 355 326 301 328 318 325 326 328 333 342 348 355 11 15 359 7 349 344 292 280 272 260 257 252 250 241 237 233 231 229
38 36 34 33 28 27 24 23 28 27 23 10 2 353 343 333 43 307 312 334 334 355 357 35 35 34 29 24 15 7 358 345 306 278 269 260 259 256 257 245 216 224 226
41 38 35 36 33 29 25 23 28 31 28 20 11 3 354 351 330 329 310 324 314 338 35 44 43 33 30 31 26 21 17 2 347 310 276 264 259 261 250 243 208 196 224
42 37 38 34 37 32 31 28 32 31 27 23 17 10 2 356 339 322 311 319 305 316 2 36 38 36 29 30 31 30 28 29 20 23 331 284 257 254 251 226 199 200 208
50 46 45 43 43 39 34 33 33 31 27 24 18 16 12 7 358 344 332 326 315 288 44 17 10 30 29 33 33 37 37 37 37 37 37 41 304 257 247 241 219 211 214
59 53 50 49 47 42 38 38 37 33 31 29 24 20 18 12 12 7 0 357 342 324 24 16 8 20 29 38 34 45 40 37 40 42 40 41 45 51 82 200 199 208 213
61 56 53 53 51 48 46 46 44 41 42 35 30 27 25 18 16 19 17 14 7 322 325 16 15 22 37 34 41 49 41 38 38 40 41 43 45 49 47 55 76 108 225
65 62 60 59 57 54 54 54 52 50 48 42 38 33 31 27 27 23 24 24 23 22 24 26 17 26 33 35 39 49 50 46 41 40 42 43 45 49 50 49 52 50 54
77 72 72 68 64 60 59 57 53 50 48 43 41 37 35 31 34 29 27 28 28 29 28 25 12 8 22 19 29 38 45 51 48 39 41 43 44 48 48 45 49 52 50
88 85 79 75 69 63 62 58 57 54 49 51 42 38 35 34 34 31 32 32 30 32 33 35 30 22 15 14 16 31 37 38 40 48 49 46 48 48 49 46 47 47 40
95 86 81 79 72 65 61 58 59 56 50 50 45 42 40 37 35 31 31 31 30 33 32 37 30 23 20 16 19 14 14 33 33 32 44 50 47 48 46 46 45 45 43
99 87 87 83 71 62 53 54 50 50 49 46 44 44 41 42 41 40 38 30 30 33 31 33 30 23 18 10 12 8 7 345 34 29 27 31 34 43 41 43 42 41 40
104 96 87 78 74 65 57 55 59 52 50 48 45 43 41 38 38 41 45 45 41 37 34 31 29 23 13 7 4 10 16 18 4 7 13 26 31 36 40 40 40 40 41
107 97 89 84 78 70 64 59 65 62 56 52 49 46 43 37 37 39 39 42 43 42 41 35 33 25 13 4 359 5 14 34 32 5 9 30 24 32 31 34 35 36 37
111 100 92 86 82 70 66 67 65 64 62 57 50 48 48 44 39 42 44 45 43 39 37 38 38 31 25 15 12 4 354 357 27 23 19 24 10 10 20 26 30 32 34
115 106 98 90 86 76 70 74 70 69 67 63 59 51 50 46 39 43 46 46 44 41 37 44 44 40 36 32 33 33 26 23 20 21 17 356 358 344 346 15 19 23 26
125 122 110 101 101 89 71 69 76 74 72 68 61 56 49 46 39 36 40 39 41 33 33 36 36 35 33 34 38 39 32 31 18 11 4 357 358 2 332 11 14 14 13